TimeEDT,TemperatureF,Dew PointF,Humidity,Sea Level PressureIn,VisibilityMPH,Wind Direction,Wind SpeedMPH,Gust SpeedMPH,PrecipitationIn,Events,Conditions,WindDirDegrees,DateUTC
12:15 AM,64.4,62.6,94,29.97,0.5,Calm,Calm,-,N/A,,Overcast,0,2012-10-03 04:15:00
12:35 AM,64.4,62.6,94,29.97,0.5,NE,3.5,-,N/A,,Overcast,50,2012-10-03 04:35:00
12:55 AM,64.4,62.6,94,29.97,0.5,Calm,Calm,-,0.01,,Overcast,0,2012-10-03 04:55:00
1:15 AM,64.4,62.6,94,29.97,0.5,Calm,Calm,-,N/A,,Overcast,0,2012-10-03 05:15:00
1:35 AM,64.4,62.6,94,29.97,0.5,Calm,Calm,-,N/A,,Overcast,0,2012-10-03 05:35:00
1:55 AM,64.4,62.6,94,29.97,0.5,Calm,Calm,-,N/A,,Overcast,0,2012-10-03 05:55:00
2:15 AM,64.4,62.6,94,29.97,0.5,Calm,Calm,-,N/A,,Overcast,0,2012-10-03 06:15:00
2:35 AM,64.4,62.6,94,29.98,0.2,Calm,Calm,-,N/A,,Overcast,0,2012-10-03 06:35:00
2:55 AM,64.4,62.6,94,29.98,0.5,Calm,Calm,-,N/A,,Overcast,0,2012-10-03 06:55:00
3:15 AM,64.4,62.6,94,29.98,0.5,ENE,3.5,-,N/A,,Overcast,70,2012-10-03 07:15:00
3:35 AM,64.4,62.6,94,29.98,0.5,Calm,Calm,-,N/A,,Overcast,0,2012-10-03 07:35:00
3:55 AM,64.4,62.6,94,29.98,1.0,Calm,Calm,-,N/A,,Overcast,0,2012-10-03 07:55:00
4:15 AM,64.4,62.6,94,29.99,1.2,Calm,Calm,-,N/A,,Overcast,0,2012-10-03 08:15:00
4:35 AM,64.4,62.6,94,29.99,1.2,Calm,Calm,-,N/A,,Overcast,0,2012-10-03 08:35:00
5:15 AM,64.4,62.6,94,29.99,0.8,East,3.5,-,N/A,,Overcast,80,2012-10-03 09:15:00
5:35 AM,64.4,62.6,94,30.00,0.8,Calm,Calm,-,N/A,,Overcast,0,2012-10-03 09:35:00
5:55 AM,64.4,62.6,94,30.01,0.5,Calm,Calm,-,N/A,,Overcast,0,2012-10-03 09:55:00
6:15 AM,64.4,64.4,100,30.01,0.5,Calm,Calm,-,N/A,,Overcast,0,2012-10-03 10:15:00
6:55 AM,64.4,64.4,100,30.01,0.8,Calm,Calm,-,N/A,,Overcast,0,2012-10-03 10:55:00
7:15 AM,64.4,64.4,100,30.03,0.2,Calm,Calm,-,N/A,,Overcast,0,2012-10-03 11:15:00
7:35 AM,64.4,64.4,100,30.03,0.5,Calm,Calm,-,0.01,,Overcast,0,2012-10-03 11:35:00
7:55 AM,64.4,64.4,100,30.03,0.5,Calm,Calm,-,0.01,,Overcast,0,2012-10-03 11:55:00
8:15 AM,64.4,64.4,100,30.04,0.8,Calm,Calm,-,N/A,,Overcast,0,2012-10-03 12:15:00
8:35 AM,66.2,64.4,94,30.05,1.0,Calm,Calm,-,N/A,,Overcast,0,2012-10-03 12:35:00
8:55 AM,66.2,64.4,94,30.05,0.8,Calm,Calm,-,N/A,,Overcast,0,2012-10-03 12:55:00
9:15 AM,66.2,64.4,94,30.05,0.2,East,3.5,-,N/A,,Overcast,80,2012-10-03 13:15:00
9:35 AM,66.2,64.4,94,30.05,0.2,Calm,Calm,-,N/A,,Overcast,0,2012-10-03 13:35:00
9:55 AM,68.0,66.2,94,30.05,0.2,Calm,Calm,-,N/A,,Overcast,0,2012-10-03 13:55:00
10:15 AM,68.0,66.2,94,30.05,0.2,Calm,Calm,-,N/A,,Overcast,0,2012-10-03 14:15:00
10:35 AM,68.0,68.0,100,30.05,0.2,Calm,Calm,-,N/A,,Overcast,0,2012-10-03 14:35:00
10:55 AM,69.8,68.0,94,30.05,0.2,Calm,Calm,-,N/A,,Overcast,0,2012-10-03 14:55:00
11:15 AM,69.8,68.0,94,30.06,0.2,Calm,Calm,-,N/A,,Overcast,0,2012-10-03 15:15:00
11:35 AM,69.8,68.0,94,30.06,0.2,Calm,Calm,-,N/A,,Overcast,0,2012-10-03 15:35:00
11:55 AM,69.8,69.8,100,30.06,0.5,Calm,Calm,-,N/A,,Overcast,0,2012-10-03 15:55:00
12:15 PM,71.6,69.8,94,30.06,0.5,Calm,Calm,-,N/A,,Overcast,0,2012-10-03 16:15:00
12:35 PM,71.6,69.8,94,30.05,0.5,Calm,Calm,-,N/A,,Overcast,0,2012-10-03 16:35:00
12:55 PM,71.6,69.8,94,30.06,0.5,Calm,Calm,-,N/A,,Overcast,0,2012-10-03 16:55:00
1:15 PM,71.6,69.8,94,30.06,1.0,Calm,Calm,-,N/A,,Overcast,0,2012-10-03 17:15:00
1:35 PM,73.4,71.6,94,30.05,2.5,Calm,Calm,-,N/A,,Overcast,0,2012-10-03 17:35:00
1:55 PM,73.4,73.4,100,30.05,5.0,Calm,Calm,-,N/A,,Mostly Cloudy,0,2012-10-03 17:55:00
2:15 PM,77.0,71.6,83,30.05,5.0,Calm,Calm,-,N/A,,Scattered Clouds,0,2012-10-03 18:15:00
2:35 PM,77.0,71.6,83,30.04,5.0,Calm,Calm,-,N/A,,Mostly Cloudy,0,2012-10-03 18:35:00
2:55 PM,78.8,71.6,78,30.05,7.0,Calm,Calm,-,N/A,,Scattered Clouds,0,2012-10-03 18:55:00
3:15 PM,78.8,71.6,78,30.05,10.0,West,3.5,-,N/A,,Scattered Clouds,280,2012-10-03 19:15:00
3:35 PM,80.6,71.6,74,30.05,10.0,Calm,Calm,-,N/A,,Scattered Clouds,0,2012-10-03 19:35:00
3:55 PM,78.8,71.6,78,30.05,10.0,NW,3.5,-,N/A,,Scattered Clouds,320,2012-10-03 19:55:00
4:15 PM,78.8,71.6,78,30.05,7.0,NNW,3.5,-,N/A,,Scattered Clouds,340,2012-10-03 20:15:00
4:35 PM,78.8,71.6,78,30.05,10.0,West,3.5,-,N/A,,Clear,280,2012-10-03 20:35:00
4:55 PM,77.0,69.8,78,30.05,10.0,Calm,Calm,-,N/A,,Clear,0,2012-10-03 20:55:00
5:15 PM,77.0,69.8,78,30.05,10.0,Calm,Calm,-,N/A,,Scattered Clouds,0,2012-10-03 21:15:00
5:35 PM,77.0,69.8,78,30.06,10.0,Calm,Calm,-,N/A,,Scattered Clouds,0,2012-10-03 21:35:00
5:55 PM,77.0,69.8,78,30.07,10.0,Calm,Calm,-,N/A,,Scattered Clouds,0,2012-10-03 21:55:00
6:15 PM,75.2,69.8,83,30.08,10.0,Calm,Calm,-,N/A,,Mostly Cloudy,0,2012-10-03 22:15:00
6:55 PM,73.4,69.8,88,30.08,7.0,NW,3.5,-,N/A,,Scattered Clouds,310,2012-10-03 22:55:00
7:15 PM,73.4,68.0,83,30.09,5.0,West,3.5,-,N/A,,Scattered Clouds,270,2012-10-03 23:15:00
7:35 PM,71.6,68.0,88,30.09,4.0,West,3.5,-,N/A,,Scattered Clouds,270,2012-10-03 23:35:00
7:55 PM,71.6,68.0,88,30.10,4.0,Calm,Calm,-,N/A,,Clear,0,2012-10-03 23:55:00
8:15 PM,71.6,68.0,88,30.10,4.0,Calm,Calm,-,N/A,,Clear,0,2012-10-04 00:15:00
8:35 PM,69.8,68.0,94,30.11,4.0,Calm,Calm,-,N/A,,Clear,0,2012-10-04 00:35:00
8:55 PM,69.8,66.2,88,30.11,4.0,Calm,Calm,-,N/A,,Clear,0,2012-10-04 00:55:00
9:15 PM,69.8,66.2,88,30.12,3.0,Calm,Calm,-,N/A,,Unknown,0,2012-10-04 01:15:00
9:35 PM,69.8,66.2,88,30.12,3.0,Calm,Calm,-,N/A,,Unknown,0,2012-10-04 01:35:00
9:55 PM,68.0,66.2,94,30.12,3.0,Calm,Calm,-,N/A,,Unknown,0,2012-10-04 01:55:00
10:15 PM,68.0,64.4,88,30.13,3.0,Calm,Calm,-,N/A,,Unknown,0,2012-10-04 02:15:00
10:35 PM,68.0,64.4,88,30.13,1.8,Calm,Calm,-,N/A,,Unknown,0,2012-10-04 02:35:00
10:55 PM,66.2,64.4,94,30.12,1.0,Calm,Calm,-,N/A,,Unknown,0,2012-10-04 02:55:00
11:15 PM,66.2,64.4,94,30.12,0.2,Calm,Calm,-,N/A,,Unknown,0,2012-10-04 03:15:00
11:35 PM,66.2,64.4,94,30.12,1.0,Calm,Calm,-,N/A,,Unknown,0,2012-10-04 03:35:00
11:55 PM,66.2,64.4,94,30.12,1.0,Calm,Calm,-,N/A,,Unknown,0,2012-10-04 03:55:00